Location: Newark
(48.6461°N, 4.3644°W)
Time: 06:16:20
(UTC+00:00)

Transit 4A - Pass Details

Date: 02 February 2020
Orbit: 872 x 973 km, 66.8° (Epoch: 19 February)

Event Time Altitude Azimuth Distance (km) Brightness Sun altitude
Rises 14:29:58 0° 319° (NW) 3,471 10.7 19.4°
Reaches altitude 10° 14:32:38 10° 311° (NW) 2,530 10.1 19.1°
Maximum altitude 14:37:50 34° 248° (WSW) 1,397 9.9 18.7°
Drops below altitude 10° 14:43:03 10° 185° (S) 2,542 11.5 18.2°
Sets 14:45:45 0° 176° (S) 3,490 11.8 18.0°
